Location: ?
(35.4064°N, 139.3593°E)
Time: 04:30:29
(UTC+00:00)

ISS - Pass Details

Date: 18 April 2024
Orbit: 409 x 414 km, 51.6° (Epoch: 24 May)

Event Time Altitude Azimuth Distance (km) Brightness Sun altitude
Exits shadow 18:59:07 10° 188° (S) 1,471 -1.3 -13.5°
Reaches altitude 10° 18:59:08 10° 188° (S) 1,466 -1.3 -13.5°
Maximum altitude 19:01:53 25° 131° (SE) 867 -1.9 -13.0°
Drops below altitude 10° 19:04:40 10° 73° (ENE) 1,470 0.5 -12.5°
Sets 19:06:58 0° 60° (ENE) 2,334 2.1 -12.0°
